STARLINK-34186, 64145

Orbit data source: Space-Track

STARLINK-34186, 64145 is a payload satellite owned by SpaceX/Seattle (US) in LEO that was launched on Sat, 24 May 2025 UTC via an FALCON 9 launch vehicle from the Air Force Eastern Test Range (AFETR). Payload-class satellites include a variety of spacecraft equipped with specific instruments for various scientific and technological missions. These include communications satellites like Starlink; space stations such as the ISS; scientific satellites like the Hubble; Earth observation satellites from companies like Planet Labs, Umbra, and HawkEye 360; GPS; miniature CubeSats for education and research; and military/defense satellites.

Loading next visibility...
Identifier
64145, 2025-111Y
Orbit
LEO
Country
Flag of USUS
Related business
Manufacturer
SpaceX/Seattle
Mission
Operational Commercial Communications
Bus & Motor
STARLINK V2MO, Unknown motor
Mass
575 kg wet, ~530 kg dry
Launch date (UTC)
2025-05-24 (1 year ago)
Launch vehicle
FALCON 9
Launch site
Air Force Eastern Test Range (AFETR)
Object type
Payload
Rocket body
Debris
Shape & HBR
Box + 2 Pan, 17.7 m
Radar Cross Section
36.964 m², Large (>1 m²)

Expand to show TLE details & history
Last TLE update: 10 hours ago

TLE from 10 hours ago
0 STARLINK-34186
1 64145U 25111Y   26171.42325235  .00009361  00000-0  34912-3 0  9994
2 64145  42.9978 217.8109 0001023 266.3514  93.7221 15.27592635 61176
Epoch: 2026-06-20T10:09Z
TLE epoch observation values (Epoch: 2026-06-20T10:09:29.003Z)
Latitude
0.00003°
Longitude
156.80199°
Altitude
482.832 km
Speed
7.626 km/s
True Right ascension
14h 31m 14s
True Declination
0° 00' 00"
Sunlit
Object was in full shadow at epoch
Visualization orbit readout
Latitude
Unknown
Longitude
Unknown
Altitude
Unknown
Speed
Unknown
Apparent Right ascension
Unknown
Apparent Declination
Unknown
Sunlit
N/A
Visualization observer readout
Local Sidereal Time
07:14:00
Azimuth
Unknown
Elevation
Unknown
Doppler factor
Unknown
Orbital elements
Apogee altitude
485.659 km
Perigee altitude
484.255 km
Semi-major axis
6,863.094 km
Eccentricity
0.0001
Inclination
42.9978°
RAAN
217.8109°
Arg. of periapsis
266.3514°
True anomaly
93.7338°
Mean anomaly
93.7221°
Eccentric anomaly
93.72795°
Mean motion
3.81736 °/min
Orbital period
94.31 mins
BSTAR
0.00034912
Loading maneuver chart data...
Computing Atmospheric mass density...
Loading historical data...
Loading historical data...
Loading historical data...
Loading historical data...
Loading historical data...
Loading historical data...
Loading historical data...

Documentation

Showing up to 5 results
|